Theta_e
332 342 349 351 351 351 351 350 350 349 349 350 350 349 349 349 350 350 350 350 349 349 348 348 348 346 343 342 341 342 343 344 345 345 345 345 344 341 345 344 343 341 345
335 345 346 350 351 351 351 350 349 349 350 350 350 349 349 349 348 348 348 347 347 347 346 346 344 342 340 339 338 339 341 341 341 342 342 341 343 343 339 342 342 340 344
338 345 347 348 349 350 350 349 348 348 348 348 349 348 348 348 348 347 346 346 346 346 345 343 340 338 336 335 336 337 337 337 338 339 339 342 343 343 342 340 340 340 342
340 344 346 345 349 349 349 348 348 348 347 346 348 349 348 347 346 346 346 344 343 342 340 338 335 333 331 330 331 333 332 330 331 336 340 340 343 344 345 343 340 343 341
341 343 344 344 347 347 346 346 345 346 345 345 345 346 346 346 345 344 342 340 338 336 334 332 329 327 325 325 325 328 327 331 328 336 337 340 343 344 345 344 342 342 343
340 342 342 344 346 346 345 344 343 344 344 344 344 344 343 342 341 339 338 335 333 331 328 326 325 324 323 323 322 322 322 329 332 332 332 334 340 343 344 342 343 343 342
338 340 341 341 342 343 344 343 342 342 342 342 343 343 341 339 338 336 333 330 328 326 324 323 322 322 321 321 320 318 316 322 326 326 325 328 335 339 340 340 340 341 342
336 337 339 335 338 340 341 341 341 341 339 339 339 338 337 335 334 332 329 327 325 323 321 321 321 320 320 318 317 315 313 312 314 317 318 321 328 334 335 334 334 336 339
336 335 337 337 335 333 335 336 337 338 336 337 336 334 333 331 330 328 325 324 322 321 320 320 319 318 318 316 315 313 311 308 308 309 310 316 321 324 325 325 327 331 333
334 334 334 334 334 334 332 329 331 333 333 333 331 329 328 327 326 324 323 321 320 319 319 317 315 315 315 314 312 310 307 305 304 306 309 314 317 319 320 320 321 322 328
329 330 331 330 330 329 329 325 326 328 328 327 324 320 316 316 315 313 317 319 318 318 317 314 312 310 308 308 308 306 303 303 304 305 308 313 315 317 317 318 318 319 321
324 326 328 327 326 326 325 325 323 321 321 319 316 313 311 309 309 311 313 315 316 315 314 311 308 304 301 301 302 302 301 302 303 304 306 311 313 314 315 316 317 318 319
324 325 325 325 324 322 320 319 317 314 315 314 311 308 305 305 308 307 307 305 305 302 301 300 299 299 300 300 300 300 301 301 302 302 303 308 310 312 314 315 316 317 318
319 321 323 322 320 320 318 318 314 311 311 310 307 303 301 303 302 301 301 300 300 299 299 299 299 299 299 299 300 300 300 300 301 302 302 305 308 311 313 317 318 318 318
319 318 318 319 319 317 316 313 311 310 309 308 304 302 300 301 300 300 299 299 298 298 298 298 298 298 298 298 299 299 299 299 300 301 302 302 306 310 312 318 319 319 318
319 319 315 316 317 315 315 312 310 307 306 305 303 301 300 300 299 299 298 298 297 297 297 297 297 297 297 297 297 297 298 299 300 300 301 302 304 308 313 318 319 320 323
318 317 313 313 314 314 313 311 308 306 303 302 301 301 300 299 299 298 298 297 297 297 296 296 296 296 296 296 295 296 297 298 299 299 300 301 304 305 311 314 316 316 317
317 315 314 314 311 312 312 311 307 303 301 301 300 300 299 299 298 297 297 296 296 296 296 295 295 295 295 295 295 296 297 297 297 298 299 300 303 305 306 309 310 311 313
316 314 313 313 310 310 308 308 306 303 301 300 299 299 299 299 298 297 296 296 295 295 295 295 294 295 294 294 294 296 295 295 296 297 297 299 301 305 305 304 304 306 309
314 314 313 312 311 309 306 304 303 300 300 299 298 298 298 299 297 296 295 295 294 294 294 294 293 293 293 293 293 293 295 297 296 296 296 298 301 302 302 300 301 302 305
312 312 312 311 310 308 304 302 301 302 299 297 298 298 298 298 296 295 294 294 294 293 293 293 292 292 292 292 293 293 293 296 296 297 297 298 300 299 299 299 300 300 301
308 311 311 311 310 308 308 307 307 305 298 299 296 297 297 296 296 294 294 293 293 292 291 291 292 291 291 292 291 290 290 292 294 294 296 296 297 297 297 296 297 297 299
305 309 309 310 310 309 308 305 294 294 293 294 294 294 295 295 295 295 294 293 292 292 291 291 291 291 290 290 291 291 288 288 290 293 293 294 294 296 295 295 295 295 297
300 306 309 309 309 308 307 302 300 300 298 296 298 296 294 295 294 294 293 293 292 292 291 290 290 291 290 289 290 291 290 290 289 289 292 292 293 293 294 294 295 294 294
297 301 306 308 308 305 305 303 302 303 302 298 296 294 294 293 294 293 293 292 291 291 291 290 289 289 290 289 289 288 288 288 288 288 288 290 292 291 292 293 293 294 293
295 298 303 306 306 304 303 303 302 302 298 293 293 292 292 292 292 292 291 291 291 290 290 290 289 289 289 289 289 288 289 288 287 287 287 288 288 291 290 292 292 292 293
Wind_Speed
8 14 16 18 18 18 18 18 17 15 14 14 15 13 14 16 16 15 15 14 14 14 14 14 14 14 12 10 10 9 8 8 9 8 8 8 7 8 9 8 7 6 7
13 16 16 19 19 19 18 17 16 15 16 14 15 16 16 16 17 17 15 14 15 14 14 15 14 12 10 10 10 9 9 9 9 8 7 7 6 6 7 6 5 6 6
16 14 16 18 18 18 18 18 17 15 15 12 15 17 15 16 16 17 16 14 16 15 15 14 13 11 10 9 9 9 9 10 9 9 8 5 5 5 7 6 5 5 4
14 12 15 17 18 18 16 16 17 16 16 12 12 15 16 15 17 17 17 17 16 15 15 13 12 11 10 10 10 10 10 10 9 8 6 6 5 7 8 6 4 5 4
16 11 11 15 19 18 16 15 13 13 15 13 11 14 15 17 19 18 17 16 16 14 13 13 12 11 11 11 11 11 11 10 9 7 7 6 5 6 9 9 6 4 3
12 12 15 18 19 17 15 15 14 15 14 14 14 13 14 14 16 16 16 15 15 14 13 13 12 12 11 12 12 12 12 11 9 8 7 7 6 9 11 11 11 6 4
12 13 13 15 16 15 15 16 17 16 15 14 15 16 16 16 16 16 16 15 15 14 12 12 11 12 12 12 12 12 12 11 7 7 7 7 7 10 12 12 12 10 8
12 11 11 12 16 15 15 15 16 16 16 16 16 17 17 17 18 17 16 15 14 13 12 11 12 12 12 12 13 13 12 10 7 7 6 6 9 9 11 12 10 11 11
11 10 9 10 12 12 16 12 13 15 17 16 16 17 16 16 16 17 15 15 14 13 13 12 12 12 12 12 12 12 12 11 7 5 5 4 8 8 7 8 9 10 10
10 11 10 9 10 9 11 14 9 12 13 13 13 13 12 12 13 13 12 14 14 14 14 13 11 11 11 11 11 11 10 9 6 4 4 4 6 7 7 8 8 8 8
9 10 11 10 9 7 9 9 10 11 11 11 11 13 11 7 8 10 9 13 14 14 13 12 11 10 10 11 11 11 8 4 5 4 3 7 7 6 6 7 7 7 7
16 12 13 12 10 9 6 10 6 6 7 8 9 10 6 6 6 7 8 10 12 13 13 12 11 10 7 4 4 7 4 4 3 3 3 7 7 6 6 7 7 7 6
12 11 12 12 12 10 7 6 4 4 5 6 9 8 7 6 5 4 4 4 5 8 5 6 5 4 5 4 4 4 4 4 2 2 4 8 7 7 7 7 6 5 4
13 12 12 12 12 10 7 7 7 6 6 5 6 8 7 5 5 4 3 4 4 3 5 4 3 4 5 4 4 4 4 3 2 2 3 6 6 7 7 8 5 3 3
14 12 11 12 12 10 10 7 8 7 7 8 7 7 6 6 6 5 4 4 3 3 4 4 4 4 4 4 4 4 4 3 3 2 2 5 5 6 8 7 5 5 3
16 15 10 12 11 11 10 10 8 7 7 7 7 8 9 7 7 6 5 4 4 3 3 3 3 4 3 3 3 4 3 3 3 2 2 2 5 6 6 7 7 7 9
16 13 14 13 12 14 13 11 8 7 8 8 7 9 9 8 8 8 6 5 5 4 6 4 4 3 3 2 1 1 1 2 1 1 1 1 1 3 5 5 7 6 6
16 17 14 12 12 13 11 11 8 7 7 7 7 7 9 9 9 8 6 5 6 5 4 3 3 3 2 1 1 2 2 2 3 3 1 0 0 1 3 5 5 6 5
18 16 17 15 15 13 10 9 10 10 8 8 8 7 9 9 10 8 7 6 7 5 4 4 3 2 2 0 2 1 2 3 3 2 2 1 1 1 1 6 8 9 7
16 16 17 14 15 14 9 6 5 6 7 7 8 9 12 8 10 8 7 7 7 6 5 3 3 2 2 1 2 2 2 2 2 1 1 1 2 2 2 3 3 4 7
13 16 18 19 17 13 10 8 6 10 8 8 8 11 12 11 11 9 7 8 7 7 6 5 3 3 2 1 1 1 2 3 4 3 1 1 3 3 3 2 2 2 3
15 17 16 18 17 16 13 12 6 9 5 7 6 9 10 11 11 9 9 8 9 6 6 6 4 3 2 1 2 1 1 1 1 3 2 1 3 2 3 3 3 3 3
15 17 18 20 21 18 17 10 5 6 4 5 7 8 8 11 11 10 10 8 9 7 6 7 6 5 3 1 1 1 2 3 1 1 2 1 2 1 1 2 2 2 3
15 14 16 16 16 16 18 15 18 12 11 9 10 9 9 12 12 11 10 9 9 6 8 7 5 4 4 4 1 1 1 1 2 2 1 1 1 1 1 0 1 2 2
12 14 15 16 16 17 19 18 16 15 10 6 7 12 11 10 12 12 11 10 9 7 7 8 8 6 4 3 3 3 2 1 1 3 2 1 2 2 2 2 2 2 3
12 13 14 17 19 19 19 20 21 20 13 11 11 11 9 8 8 10 11 10 10 9 10 8 7 8 6 4 4 4 3 3 3 3 5 3 2 1 2 3 4 3 3
Wind_Direction
200 168 169 164 165 163 156 145 136 139 136 138 136 134 128 122 120 121 120 122 122 119 115 109 102 93 87 87 85 79 72 73 79 80 75 65 70 79 86 91 86 86 69
152 165 162 162 162 163 150 144 139 136 132 135 140 138 135 134 130 123 124 126 122 117 112 99 90 92 95 90 89 87 79 71 66 64 62 59 43 78 81 85 78 79 77
150 165 159 159 163 154 149 148 145 142 130 135 142 143 138 135 131 127 125 122 116 109 101 98 98 100 99 94 90 86 80 78 75 68 63 66 75 72 86 89 95 93 82
148 162 157 156 156 149 143 142 142 137 125 144 136 135 139 135 131 125 119 109 106 101 101 106 104 98 92 85 78 74 74 73 70 69 77 66 71 72 73 74 90 89 85
147 155 153 140 141 139 137 133 124 120 135 147 133 120 123 124 118 114 106 102 103 110 111 107 102 93 85 79 71 67 65 64 73 73 65 56 51 63 66 52 52 67 63
143 147 150 147 149 144 131 129 133 140 138 141 133 133 119 109 102 104 110 118 121 116 112 107 102 95 86 78 72 66 64 67 79 71 60 42 37 51 64 53 44 36 36
143 150 154 143 134 147 145 142 148 144 141 141 136 134 129 126 126 128 134 129 121 117 112 107 103 93 85 76 73 69 69 66 72 70 62 43 42 42 49 46 36 31 30
141 146 148 143 143 156 144 147 151 147 149 149 143 141 143 143 141 138 136 129 123 116 110 105 96 90 84 76 76 72 70 68 70 68 58 44 33 45 42 35 25 19 26
145 135 145 150 150 150 138 150 157 154 160 155 153 149 149 146 144 139 135 131 124 119 114 107 98 92 89 84 80 76 69 68 71 64 59 38 25 44 44 35 24 17 11
154 146 151 147 153 158 148 150 162 153 150 154 147 138 135 132 132 126 125 130 125 122 114 110 103 98 93 83 79 77 71 66 68 67 61 34 28 34 30 24 14 8 2
163 159 149 152 147 140 156 147 145 141 137 123 109 99 95 107 112 113 129 128 124 118 115 106 101 94 86 76 73 74 66 56 60 49 46 26 24 26 20 14 0 353 346
182 166 161 154 151 142 148 139 127 116 124 124 125 121 116 120 123 121 112 120 116 113 106 97 86 74 67 65 65 65 66 67 61 52 42 22 22 16 9 1 353 343 336
181 172 165 159 155 148 140 133 125 123 131 131 136 133 133 134 121 112 105 103 107 96 96 87 70 63 64 57 55 60 65 61 52 44 19 12 7 2 358 352 345 333 325
179 181 171 161 154 154 147 151 146 144 147 147 148 144 147 142 140 137 134 124 107 103 107 99 94 86 75 69 61 61 59 59 50 50 22 2 3 359 355 351 343 351 337
197 182 179 164 164 157 157 149 151 153 160 158 158 163 158 151 154 148 139 131 118 114 108 109 114 105 85 65 55 48 46 37 37 29 6 355 360 5 357 339 21 29 39
200 195 184 179 167 162 162 161 160 156 157 165 168 172 170 162 160 158 147 142 133 126 122 127 111 93 75 50 41 22 12 13 7 8 12 357 360 13 11 23 46 37 42
210 189 190 194 170 175 167 161 163 164 159 171 177 174 173 167 169 161 159 156 151 149 140 126 104 104 109 98 86 358 324 345 331 350 356 340 347 21 22 53 72 56 42
205 198 187 188 186 180 176 168 162 165 161 170 174 177 179 173 169 165 161 164 158 152 142 128 125 111 101 66 346 343 331 317 311 300 297 262 121 29 30 64 57 56 47
201 195 195 185 185 183 169 171 165 168 176 175 171 178 185 180 175 170 169 165 160 149 154 154 130 138 149 211 308 318 320 304 296 277 267 263 179 144 102 53 46 41 44
193 191 191 189 183 177 165 148 157 167 179 180 181 182 180 182 178 171 167 160 159 156 158 161 147 137 132 118 301 331 32 9 7 340 234 198 146 136 112 75 56 42 33
190 185 187 187 187 171 167 169 182 199 188 189 192 183 181 178 174 171 166 162 164 170 172 166 139 158 139 106 277 115 84 57 58 37 14 117 128 127 106 83 72 53 37
191 197 192 194 184 186 184 189 184 185 190 191 181 189 187 175 168 172 169 168 169 160 165 171 168 139 110 105 123 99 340 158 72 36 33 78 122 127 111 81 75 58 55
199 199 197 196 191 189 186 166 104 104 98 162 190 187 181 172 177 173 169 166 165 162 173 178 177 169 156 131 135 118 175 230 279 68 49 44 122 137 106 78 75 65 66
209 202 203 198 192 190 182 179 183 190 184 197 189 181 179 179 174 170 168 167 169 169 174 175 176 169 147 163 145 150 58 54 224 251 169 151 340 251 213 172 173 127 112
203 200 198 193 190 185 188 189 189 199 194 164 162 169 176 177 176 171 170 168 169 171 172 171 168 170 167 152 164 152 163 164 197 222 256 211 211 218 240 229 216 202 169
198 195 192 190 193 187 187 191 196 198 176 160 166 172 175 174 174 178 170 168 171 171 173 174 169 170 171 169 176 176 175 172 186 195 233 232 279 276 257 214 208 209 218